Follow iAlert.com on twitter @ialertcom
Search For Active Alerts in Your Area  
  Hi Guest:  [ Sign-up / Services ] [ Login ]

Current weather by "City, St" or "zip code"  
 

Advertise Here

Current Conditions: Philadelphia, Philadelphia International Airport, PA

Mostly Cloudy


87.0 F

Last Updated on Sep 21 2017, 4:54 pm EDT
Humidity: 42%
Wind Speed: N 10.4 G 20.7 mph
Barometer 29.98 in
Dewpoint: 61.0 F
Visibility: 10.00 mi
Precip: --
Heat Index: 87 F
Wind Chill: NA
Current conditions at:

Philadelphia, Philadelphia International Airport, PA (KPHL)

Lat: 39.87 Lon: 75.226

Local Radar Image active severe weather and emergency alerts image image weather storm and storm spotter reports image weather observation monitoring service image
Local
Radar
Active
Alerts
Storm Reports Obs
Monitoring

iAlert Weather and Emergency Alert Notification Services:


ialert severe weather and emergency alerts by text message and email ialert daily weather forecast by email and text message service ialert real-time weather-observation monitoring and alert notification service ialert storm report monitoring alert notification

Observation History for Philadelphia, Philadelphia International Airport, PA


Time Wind
(mph)
Vis
(mi)
Weather Precip (in) Temperature (F) Relative
Humidity
Wind
Chill
(°F)
Heat
Index
(°F)
Pressure
Air Dwpt altimeter
(in)
sea level
(mb)
4:54 pm EDT N 10.4 G 20.7 10.00 Mostly Cloudy -- 87.0 61.0 42% NA 87 29.98 1015.1
3:54 pm EDT 3.5 10.00 Mostly Cloudy -- 87.0 60.1 40% NA 87 29.98 1015.0
2:54 pm EDT N 8.1 10.00 Mostly Cloudy -- 86.0 60.1 42% NA 86 29.99 1015.3
1:54 pm EDT N 10.4 10.00 Partly Cloudy -- 86.0 61.0 43% NA 86 29.99 1015.6
12:54 pm EDT N 8.1 G 23.0 10.00 Partly Cloudy -- 85.0 60.1 43% NA 85 30.01 1016.3
11:54 am EDT N 8.1 10.00 Partly Cloudy -- 84.0 63.0 49% NA 85 30.03 1016.7
10:54 am EDT N 12.7 10.00 Partly Cloudy -- 82.0 64.0 55% NA 83 30.03 1016.9
9:54 am EDT N 8.1 10.00 Partly Cloudy -- 80.0 64.0 58% NA 82 30.04 1017.1
8:54 am EDT N 9.2 10.00 Partly Cloudy -- 76.0 63.0 64% NA NA 30.04 1017.0
7:54 am EDT N 8.1 10.00 Mostly Cloudy -- 73.0 62.1 69% NA NA 30.03 1017.0
6:54 am EDT N 9.2 10.00 Mostly Cloudy -- 73.0 62.1 69% NA NA 30.03 1016.7
5:54 am EDT N 6.9 10.00 Mostly Cloudy -- 71.0 63.0 76% NA NA 30.01 1016.1
4:54 am EDT NW 4.6 10.00 Mostly Cloudy -- 70.0 63.0 79% NA NA 29.99 1015.6
3:54 am EDT NW 4.6 10.00 Partly Cloudy -- 71.0 63.0 76% NA NA 29.98 1015.1
2:54 am EDT NW 6.9 10.00 Partly Cloudy -- 72.0 64.0 76% NA NA 29.97 1015.0
1:54 am EDT NW 5.8 10.00 A Few Clouds -- 72.0 64.0 76% NA NA 29.98 1015.0
12:54 am EDT N 3.5 10.00 A Few Clouds -- 73.0 64.0 74% NA NA 29.97 1014.7
11:54 pm EDT N 5.8 10.00 A Few Clouds -- 75.0 64.0 69% NA NA 29.96 1014.6
10:54 pm EDT N 4.6 10.00 A Few Clouds -- 75.0 64.0 69% NA NA 29.95 1014.3
9:54 pm EDT NE 3.5 10.00 A Few Clouds -- 77.0 64.0 64% NA NA 29.94 1013.8
8:54 pm EDT 3.5 10.00 Partly Cloudy -- 79.0 64.0 60% NA NA 29.93 1013.5
7:54 pm EDT 5.8 10.00 Partly Cloudy -- 80.0 64.0 58% NA 82 29.92 1013.2
6:54 pm EDT NE 10.4 G 20.7 10.00 Partly Cloudy -- 80.0 64.0 58% NA 82 29.90 1012.6
5:54 pm EDT N 10.4 G 23.0 10.00 Partly Cloudy -- 85.0 61.0 45% NA 85 29.90 1012.3

Regional Weather Observation


Pottstown, Pottstown Limerick Airport, PA (KPTW)

Fair
84.0 F

Doylestown, Doylestown Airport, PA (KDYL)

Fair
82.0 F

Philadelphia, Philadelphia International Airport, PA (KPHL)

Mostly Cloudy
87.0 F

Chester County Airport, PA (KMQS)

Fair
82.0 F

Quakertown Airport, PA (KUKT)

Fair
82.0 F

Reading, Reading Regional Airport, PA (KRDG)

A Few Clouds
86.0 F

Advertise Here